This is the latest recevied weather packets stored in our database for station/object VE8SKI. If no packets are shown the sender has not sent any weather packets the latest 10 day(s).
| Time | Temp. | Humidity | Pressure | Rain* | Wind** | Luminosity | Snow |
|---|---|---|---|---|---|---|---|
| 1777789315 | -0.56° C | 90% | 1009.9 hPa | 0 mm | 2.24 m/s, 87° | - | - |
| 1777789015 | -0.56° C | 90% | 1009.8 hPa | 0 mm | 3.13 m/s, 86° | - | - |
| 1777788716 | 0° C | 90% | 1009.8 hPa | 0 mm | 2.24 m/s, 44° | - | - |
| 1777788416 | 0° C | 89% | 1009.8 hPa | 0 mm | 2.24 m/s, 44° | - | - |
| 1777788116 | 0° C | 89% | 1009.7 hPa | 0 mm | 3.13 m/s, 76° | - | - |
| 1777787816 | 0° C | 89% | 1009.7 hPa | 0 mm | 3.13 m/s, 68° | - | - |
| 1777787514 | 0° C | 88% | 1009.7 hPa | 0 mm | 2.68 m/s, 45° | - | - |
| 1777787214 | 0° C | 85% | 1009.7 hPa | 0 mm | 3.13 m/s, 104° | - | - |
| 1777786914 | 0° C | 84% | 1009.6 hPa | 0 mm | 2.68 m/s, 97° | - | - |
| 1777786615 | 0.56° C | 84% | 1009.5 hPa | 0 mm | 1.34 m/s, 75° | - | - |
| 1777786315 | 0.56° C | 84% | 1009.5 hPa | 0 mm | 1.79 m/s, 76° | - | - |
| 1777786015 | 0.56° C | 83% | 1009.4 hPa | 0 mm | 2.68 m/s, 44° | - | - |
| 1777785713 | 0.56° C | 82% | 1009.4 hPa | 0 mm | 1.79 m/s, 68° | - | - |
| 1777785413 | 0.56° C | 81% | 1009.4 hPa | 0 mm | 0.89 m/s, 77° | - | - |
| 1777785113 | 0.56° C | 81% | 1009.4 hPa | 0 mm | 2.68 m/s, 124° | - | - |
| 1777784814 | 0.56° C | 81% | 1009.4 hPa | 0 mm | 2.68 m/s, 75° | - | - |
| 1777784514 | 0.56° C | 81% | 1009.4 hPa | 0 mm | 2.24 m/s, 68° | - | - |
| 1777784214 | 0.56° C | 81% | 1009.4 hPa | 0 mm | 1.34 m/s, 69° | - | - |
| 1777783912 | 1.11° C | 80% | 1009.4 hPa | 0 mm | 2.24 m/s, 72° | - | - |
| 1777783612 | 1.11° C | 80% | 1009.4 hPa | 0 mm | 1.79 m/s, 65° | - | - |
| 1777783312 | 1.11° C | 79% | 1009.4 hPa | 0 mm | 1.79 m/s, 75° | - | - |
| 1777783013 | 1.11° C | 79% | 1009.4 hPa | 0 mm | 2.68 m/s, 97° | - | - |
| 1777782713 | 1.11° C | 79% | 1009.4 hPa | 0 mm | 2.24 m/s, 93° | - | - |
| 1777782413 | 1.11° C | 79% | 1009.3 hPa | 0 mm | 2.68 m/s, 131° | - | - |
| 1777782111 | 1.11° C | 78% | 1009.2 hPa | 0 mm | 2.24 m/s, 82° | - | - |
* Rain latest hour (hover to see other rain measurements)
** Current wind speed in m/s (hover to see current wind gust speed)